O'Neill, NE

5:29 PM CDT on September 25, 2016 (GMT -0500)
The O'Neill Municipal-Baker

Weather History for KONL - November, 2013

Change the Weather History Date:

Wednesday, November 20, 2013

  Actual Average Record
Temperature  
Mean Temperature 42 °F -  
Max Temperature 54 °F 42 °F 76 °F (1962)
Min Temperature 30 °F 23 °F 0 °F (1985)
Degree Days  
Heating Degree Days 22    
Moisture  
Dew Point 30 °F    
Average Humidity 60    
Maximum Humidity 77    
Minimum Humidity 39    
Precipitation  
Precipitation 0.00 in - - ()
Sea Level Pressure  
Sea Level Pressure 29.79 in    
Wind  
Wind Speed 10 mph (NNW)    
Max Wind Speed 26 mph    
Max Gust Speed 36 mph    
Visibility 10 miles    
Events      
Averages and records for this station are not official NWS values.
T = Trace of Precipitation, MM = Missing Value Source: NWS Daily Summary

Daily Weather History Graph

Daily Weather History Graph

Search for Another Location

Airport or City:

Trip Planner

Search our weather history database for the weather conditions in past years. The results will help you decide how hot, cold, wet, or windy it might be!

Date:

Astronomy

Nov. 20, 2013 Rise Set
Actual Time 7:32 AM CST 5:08 PM CST
Civil Twilight 7:01 AM CST 5:38 PM CST
Nautical Twilight 6:27 AM CST 6:13 PM CST
Astronomical Twilight 5:53 AM CST 6:46 PM CST
Moon 7:52 PM CST (11/20) 9:58 AM CST (11/20)
Length of Visible Light 10h 37m
Length of Day
9h 35m
Waning Gibbous, 91% of the Moon is Illuminated
Nov 20
Waning Gibbous
Nov 25
Last Quarter
Dec 2
New
Dec 9
First Quarter
Dec 17
Full

Hourly Weather History & Observations

Time (CST) Temp. Windchill Dew Point Humidity Pressure Visibility Wind Dir Wind Speed Gust Speed Precip Events Conditions
12:15 AM 47.5 °F - 31.1 °F 53% 29.71 in 10.0 mi South 11.5 mph 19.6 mph N/A   Clear
12:35 AM 47.3 °F - 30.9 °F 53% 29.71 in 10.0 mi South 12.7 mph - N/A   Clear
12:55 AM 46.9 °F - 30.9 °F 54% 29.71 in 10.0 mi South 12.7 mph 17.3 mph N/A   Clear
1:15 AM 46.6 °F - 30.9 °F 54% 29.70 in 10.0 mi South 11.5 mph 17.3 mph N/A   Clear
1:35 AM 46.4 °F 40.7 °F 30.7 °F 54% 29.70 in 10.0 mi South 12.7 mph 17.3 mph N/A   Clear
1:55 AM 46.4 °F 40.7 °F 30.7 °F 54% 29.69 in 10.0 mi South 12.7 mph - N/A   Clear
2:15 AM 46.0 °F 41.0 °F 30.7 °F 55% 29.69 in 10.0 mi South 10.4 mph 17.3 mph N/A   Clear
2:35 AM 45.5 °F 39.6 °F 30.7 °F 56% 29.69 in 10.0 mi South 12.7 mph - N/A   Clear
2:55 AM 45.1 °F 40.3 °F 30.7 °F 57% 29.70 in 10.0 mi South 9.2 mph - N/A   Clear
3:15 AM 44.6 °F 39.2 °F 30.6 °F 58% 29.70 in 10.0 mi South 10.4 mph - N/A   Clear
3:35 AM 43.7 °F 38.6 °F 30.2 °F 59% 29.69 in 10.0 mi South 9.2 mph - N/A   Clear
3:55 AM 42.8 °F 38.0 °F 30.2 °F 61% 29.69 in 10.0 mi South 8.1 mph - N/A   Clear
4:15 AM 42.4 °F 36.5 °F 29.8 °F 61% 29.69 in 10.0 mi South 10.4 mph - N/A   Clear
4:35 AM 41.9 °F 38.2 °F 29.8 °F 62% 29.69 in 10.0 mi South 5.8 mph - N/A   Clear
4:55 AM 41.0 °F 36.4 °F 29.7 °F 64% 29.69 in 10.0 mi South 6.9 mph - N/A   Clear
5:15 AM 40.5 °F 35.8 °F 29.5 °F 65% 29.69 in 10.0 mi South 6.9 mph - N/A   Clear
5:35 AM 40.3 °F 36.3 °F 29.3 °F 65% 29.69 in 10.0 mi South 5.8 mph - N/A   Clear
5:55 AM 40.1 °F 35.3 °F 29.3 °F 65% 29.69 in 10.0 mi South 6.9 mph - N/A   Mostly Cloudy
6:15 AM 40.1 °F 36.9 °F 29.7 °F 66% 29.69 in 10.0 mi South 4.6 mph - N/A   Overcast
6:35 AM 39.6 °F 37.4 °F 29.8 °F 68% 29.70 in 10.0 mi SSW 3.5 mph - N/A   Overcast
6:55 AM 39.6 °F 37.4 °F 30.0 °F 69% 29.70 in 10.0 mi SSW 3.5 mph - N/A   Mostly Cloudy
7:15 AM 39.7 °F 37.6 °F 30.2 °F 69% 29.70 in 10.0 mi South 3.5 mph - N/A   Mostly Cloudy
7:35 AM 40.1 °F 38.0 °F 30.4 °F 68% 29.71 in 10.0 mi South 3.5 mph - N/A   Overcast
7:55 AM 40.3 °F - 30.7 °F 69% 29.71 in 10.0 mi Calm Calm - N/A   Overcast
8:15 AM 40.5 °F - 31.1 °F 69% 29.71 in 10.0 mi Calm Calm - N/A   Overcast
8:35 AM 41.2 °F - 31.5 °F 68% 29.71 in 10.0 mi Calm Calm - N/A   Overcast
8:55 AM 41.7 °F - 31.6 °F 67% 29.72 in 10.0 mi Calm Calm - N/A   Overcast
9:15 AM 41.9 °F - 32.0 °F 68% 29.73 in 10.0 mi Calm Calm - N/A   Mostly Cloudy
9:35 AM 43.0 °F - 32.0 °F 65% 29.73 in 10.0 mi Calm Calm - N/A   Mostly Cloudy
9:55 AM 44.6 °F - 32.4 °F 62% 29.74 in 10.0 mi Calm Calm - N/A   Mostly Cloudy
10:15 AM 45.1 °F - 32.9 °F 62% 29.74 in 10.0 mi Calm Calm - N/A   Mostly Cloudy
10:35 AM 46.9 °F - 32.9 °F 58% 29.75 in 10.0 mi Calm Calm - N/A   Scattered Clouds
10:55 AM 48.7 °F - 32.2 °F 53% 29.75 in 10.0 mi North 5.8 mph - N/A   Scattered Clouds
11:15 AM 48.7 °F - 32.2 °F 53% 29.75 in 10.0 mi North 9.2 mph - N/A   Clear
11:35 AM 51.8 °F - 32.0 °F 47% 29.75 in 10.0 mi North 9.2 mph - N/A   Clear
11:55 AM 52.9 °F - 32.0 °F 45% 29.75 in 10.0 mi North 9.2 mph - N/A   Clear
12:15 PM 53.4 °F - 32.0 °F 44% 29.74 in 10.0 mi North 9.2 mph - N/A   Clear
12:35 PM 53.8 °F - 31.6 °F 43% 29.74 in 10.0 mi North 10.4 mph - N/A   Clear
12:55 PM 54.9 °F - 30.7 °F 40% 29.74 in 10.0 mi North 10.4 mph - N/A   Clear
1:15 PM 54.7 °F - 30.9 °F 40% 29.74 in 10.0 mi North 9.2 mph - N/A   Clear
1:35 PM 54.3 °F - 30.7 °F 41% 29.74 in 10.0 mi North 10.4 mph - N/A   Clear
1:55 PM 54.3 °F - 29.8 °F 39% 29.74 in 10.0 mi North 12.7 mph 16.1 mph N/A   Clear
2:15 PM 53.8 °F - 30.0 °F 40% 29.74 in 10.0 mi NNW 11.5 mph - N/A   Clear
2:35 PM 53.8 °F - 30.7 °F 41% 29.74 in 10.0 mi NNW 11.5 mph - N/A   Clear
2:55 PM 53.4 °F - 30.9 °F 42% 29.74 in 10.0 mi North 11.5 mph - N/A   Clear
3:15 PM 52.9 °F - 31.1 °F 43% 29.75 in 10.0 mi North 11.5 mph - N/A   Clear
3:35 PM 52.3 °F - 31.6 °F 45% 29.76 in 10.0 mi North 8.1 mph - N/A   Clear
3:55 PM 51.4 °F - 32.0 °F 47% 29.78 in 10.0 mi North 8.1 mph - N/A   Clear
4:15 PM 50.4 °F - 32.0 °F 49% 29.78 in 10.0 mi North 9.2 mph - N/A   Clear
4:35 PM 48.2 °F - 31.6 °F 53% 29.79 in 10.0 mi North 9.2 mph - N/A   Clear
4:55 PM 46.4 °F 42.9 °F 31.8 °F 57% 29.81 in 10.0 mi North 6.9 mph - N/A   Clear
5:15 PM 43.9 °F 39.9 °F 31.8 °F 63% 29.81 in 10.0 mi North 6.9 mph - N/A   Clear
5:35 PM 42.1 °F 38.4 °F 31.8 °F 67% 29.83 in 10.0 mi NNW 5.8 mph - N/A   Clear
5:55 PM 40.1 °F 35.3 °F 31.1 °F 70% 29.83 in 10.0 mi North 6.9 mph - N/A   Clear
6:15 PM 40.1 °F 35.3 °F 31.1 °F 70% 29.84 in 10.0 mi North 6.9 mph - N/A   Clear
6:35 PM 39.0 °F 34.8 °F 31.1 °F 73% 29.86 in 10.0 mi North 5.8 mph - N/A   Clear
6:55 PM 39.6 °F 34.0 °F 31.6 °F 73% 29.87 in 10.0 mi North 8.1 mph - N/A   Clear
7:15 PM 39.6 °F 35.4 °F 31.8 °F 74% 29.88 in 10.0 mi NNW 5.8 mph - N/A   Clear
7:35 PM 39.4 °F 33.8 °F 32.0 °F 75% 29.89 in 10.0 mi North 8.1 mph - N/A   Clear
7:55 PM 38.5 °F 31.6 °F 31.6 °F 76% 29.90 in 10.0 mi NNW 10.4 mph - N/A   Clear
8:15 PM 38.7 °F 29.8 °F 31.1 °F 74% 29.93 in 10.0 mi NNW 16.1 mph 21.9 mph N/A   Clear
8:35 PM 38.3 °F 29.7 °F 29.8 °F 72% 29.95 in 10.0 mi NNW 15.0 mph - N/A   Clear
8:55 PM 37.0 °F 27.0 °F 28.8 °F 72% 29.97 in 10.0 mi NNW 18.4 mph 21.9 mph N/A   Clear
9:15 PM 36.1 °F 25.2 °F 28.2 °F 73% 29.97 in 10.0 mi NNW 20.7 mph 24.2 mph N/A   Clear
9:35 PM 35.1 °F 23.5 °F 27.5 °F 74% 29.97 in 10.0 mi North 21.9 mph 26.5 mph N/A   Clear
9:55 PM 34.2 °F 22.3 °F 27.0 °F 75% 29.99 in 10.0 mi NNW 21.9 mph 26.5 mph N/A   Clear
10:15 PM 32.9 °F 20.7 °F 26.4 °F 77% 30.00 in 10.0 mi North 21.9 mph 26.5 mph N/A   Clear
10:35 PM 32.2 °F 18.6 °F 25.3 °F 76% 30.02 in 10.0 mi North 26.5 mph 33.4 mph N/A   Clear
10:55 PM 32.0 °F 18.4 °F 24.3 °F 73% 30.04 in 10.0 mi North 26.5 mph 31.1 mph N/A   Scattered Clouds
11:15 PM 31.8 °F 19.3 °F 23.2 °F 70% 30.07 in 10.0 mi North 21.9 mph 35.7 mph N/A   Overcast
11:35 PM 31.6 °F 17.9 °F 23.0 °F 70% 30.08 in 10.0 mi NNW 26.5 mph 34.5 mph N/A   Overcast
11:55 PM 30.9 °F 17.2 °F 21.6 °F 68% 30.10 in 10.0 mi North 25.3 mph 32.2 mph N/A   Overcast